Wetterdaten: Samstag, 29.07.2017
Datum Zeit Temp. A. Feuchte A. Luftdruck Regen Wind Richtung Richtung Sonnenschein Helligkeit Solar
29.07.2017 00:01 16,6 C 78 % 1011,7 hPa 0,0 l/m 0,0 km/h (0 Bft) S 180 0 min 0 lux 0 W/m
29.07.2017 00:05 16,5 C 78 % 1011,7 hPa 0,0 l/m 0,1 km/h (0 Bft) S 180 0 min 0 lux 0 W/m
29.07.2017 00:10 16,5 C 79 % 1011,7 hPa 0,0 l/m 0,0 km/h (0 Bft) S 180 0 min 0 lux 0 W/m
29.07.2017 00:15 16,5 C 79 % 1011,7 hPa 0,0 l/m 0,0 km/h (0 Bft) S 180 0 min 0 lux 0 W/m
29.07.2017 00:20 16,4 C 79 % 1011,7 hPa 0,0 l/m 0,7 km/h (0 Bft) SO 145 0 min 0 lux 0 W/m
29.07.2017 00:26 16,4 C 79 % 1011,7 hPa 0,0 l/m 4,0 km/h (1 Bft) S-SO 150 0 min 0 lux 0 W/m
29.07.2017 00:31 16,4 C 79 % 1011,7 hPa 0,0 l/m 3,6 km/h (1 Bft) S-SO 150 0 min 0 lux 0 W/m
29.07.2017 00:35 16,4 C 80 % 1011,7 hPa 0,0 l/m 4,2 km/h (1 Bft) S-SO 150 0 min 0 lux 0 W/m
29.07.2017 00:40 16,4 C 79 % 1011,7 hPa 0,0 l/m 0,5 km/h (0 Bft) SO 145 0 min 0 lux 0 W/m
29.07.2017 00:45 16,4 C 79 % 1011,7 hPa 0,0 l/m 0,5 km/h (0 Bft) SO 135 0 min 0 lux 0 W/m
29.07.2017 00:51 16,4 C 80 % 1011,7 hPa 0,0 l/m 0,5 km/h (0 Bft) SO 135 0 min 0 lux 0 W/m
29.07.2017 00:56 16,4 C 79 % 1010,7 hPa 0,0 l/m 1,5 km/h (1 Bft) SO22.5 145 0 min 0 lux 0 W/m
29.07.2017 01:00 16,3 C 80 % 1010,7 hPa 0,0 l/m 5,4 km/h (2 Bft) S-SO 160 0 min 0 lux 0 W/m
29.07.2017 01:05 16,3 C 80 % 1010,7 hPa 0,0 l/m 1,2 km/h (1 Bft) SO 145 0 min 0 lux 0 W/m
29.07.2017 01:11 16,3 C 80 % 1010,7 hPa 0,0 l/m 0,1 km/h (0 Bft) SO 135 0 min 0 lux 0 W/m
29.07.2017 01:16 16,2 C 80 % 1010,7 hPa 0,0 l/m 5,1 km/h (1 Bft) S-SO22.5 150 0 min 0 lux 0 W/m
29.07.2017 01:20 16,2 C 80 % 1010,7 hPa 0,0 l/m 7,2 km/h (2 Bft) SO22.5 140 0 min 0 lux 0 W/m
29.07.2017 01:25 16,2 C 80 % 1010,7 hPa 0,0 l/m 9,0 km/h (2 Bft) S-SO 155 0 min 0 lux 0 W/m
29.07.2017 01:30 16,2 C 80 % 1010,7 hPa 0,0 l/m 7,9 km/h (2 Bft) SO22.5 145 0 min 0 lux 0 W/m
29.07.2017 01:36 16,3 C 80 % 1010,7 hPa 0,0 l/m 7,2 km/h (2 Bft) S-SO22.5 150 0 min 0 lux 0 W/m
29.07.2017 01:41 16,4 C 80 % 1010,7 hPa 0,0 l/m 8,7 km/h (2 Bft) SO22.5 140 0 min 0 lux 0 W/m
29.07.2017 01:45 16,3 C 80 % 1010,7 hPa 0,0 l/m 9,2 km/h (2 Bft) S-SO22.5 155 0 min 0 lux 0 W/m
29.07.2017 01:50 16,4 C 80 % 1010,7 hPa 0,0 l/m 10,1 km/h (2 Bft) S-SO22.5 150 0 min 0 lux 0 W/m
29.07.2017 01:55 16,4 C 80 % 1010,7 hPa 0,0 l/m 14,1 km/h (3 Bft) SO45 145 0 min 0 lux 0 W/m
29.07.2017 02:01 16,4 C 80 % 1010,7 hPa 0,0 l/m 12,1 km/h (2 Bft) SO22.5 145 0 min 0 lux 0 W/m
29.07.2017 02:05 16,4 C 80 % 1010,7 hPa 0,0 l/m 13,3 km/h (3 Bft) S-SO22.5 155 0 min 0 lux 0 W/m
29.07.2017 02:10 16,4 C 81 % 1010,7 hPa 0,0 l/m 12,1 km/h (2 Bft) SO22.5 145 0 min 0 lux 0 W/m
29.07.2017 02:15 16,4 C 81 % 1010,7 hPa 0,0 l/m 13,9 km/h (3 Bft) S-SO22.5 155 0 min 0 lux 0 W/m
29.07.2017 02:21 16,4 C 81 % 1010,7 hPa 0,0 l/m 13,5 km/h (3 Bft) S-SO22.5 165 0 min 0 lux 0 W/m
29.07.2017 02:26 16,4 C 81 % 1010,7 hPa 0,0 l/m 16,3 km/h (3 Bft) S-SO22.5 160 0 min 0 lux 0 W/m
29.07.2017 02:30 16,4 C 81 % 1010,7 hPa 0,0 l/m 15,2 km/h (3 Bft) S-SO45 150 0 min 0 lux 0 W/m
29.07.2017 02:35 16,4 C 81 % 1010,7 hPa 0,0 l/m 14,8 km/h (3 Bft) S-SO45 150 0 min 0 lux 0 W/m
29.07.2017 02:40 16,4 C 81 % 1009,7 hPa 0,0 l/m 12,8 km/h (3 Bft) S-SO22.5 155 0 min 0 lux 0 W/m
29.07.2017 02:46 16,4 C 81 % 1009,7 hPa 0,0 l/m 15,0 km/h (3 Bft) S-SO22.5 150 0 min 0 lux 0 W/m
29.07.2017 02:51 16,4 C 81 % 1009,7 hPa 0,0 l/m 17,3 km/h (3 Bft) S-SO22.5 150 0 min 0 lux 0 W/m
29.07.2017 02:55 16,4 C 81 % 1009,7 hPa 0,0 l/m 18,4 km/h (3 Bft) S-SO22.5 150 0 min 0 lux 0 W/m
29.07.2017 03:00 16,4 C 81 % 1009,7 hPa 0,0 l/m 14,3 km/h (3 Bft) S-SO22.5 160 0 min 0 lux 0 W/m
29.07.2017 03:06 16,5 C 81 % 1009,7 hPa 0,0 l/m 16,5 km/h (3 Bft) S-SO45 160 0 min 0 lux 0 W/m
29.07.2017 03:11 16,6 C 81 % 1009,7 hPa 0,0 l/m 17,0 km/h (3 Bft) S-SO22.5 160 0 min 0 lux 0 W/m
29.07.2017 03:15 16,6 C 81 % 1009,7 hPa 0,0 l/m 18,6 km/h (3 Bft) S22.5 170 0 min 0 lux 0 W/m
29.07.2017 03:20 16,7 C 80 % 1009,7 hPa 0,0 l/m 17,3 km/h (3 Bft) S-SO22.5 165 0 min 0 lux 0 W/m
29.07.2017 03:25 16,7 C 80 % 1009,7 hPa 0,0 l/m 18,5 km/h (3 Bft) S-SO22.5 165 0 min 0 lux 0 W/m
29.07.2017 03:31 16,8 C 80 % 1009,7 hPa 0,0 l/m 17,2 km/h (3 Bft) S22.5 170 0 min 0 lux 0 W/m
29.07.2017 03:36 16,9 C 79 % 1009,7 hPa 0,0 l/m 19,3 km/h (3 Bft) S-SO22.5 165 0 min 0 lux 0 W/m
29.07.2017 03:40 17,0 C 79 % 1009,7 hPa 0,0 l/m 21,7 km/h (4 Bft) S-SO22.5 165 0 min 0 lux 0 W/m
29.07.2017 03:45 17,1 C 79 % 1009,7 hPa 0,0 l/m 16,2 km/h (3 Bft) S22.5 170 0 min 0 lux 0 W/m
29.07.2017 03:50 17,2 C 78 % 1009,7 hPa 0,0 l/m 18,6 km/h (3 Bft) S45 175 0 min 0 lux 0 W/m
29.07.2017 03:56 17,2 C 78 % 1009,7 hPa 0,0 l/m 22,0 km/h (4 Bft) S22.5 180 0 min 0 lux 0 W/m
29.07.2017 04:01 17,3 C 77 % 1009,7 hPa 0,0 l/m 21,0 km/h (4 Bft) S22.5 180 0 min 0 lux 0 W/m
29.07.2017 04:05 17,3 C 77 % 1009,7 hPa 0,0 l/m 19,4 km/h (3 Bft) S22.5 180 0 min 0 lux 0 W/m
29.07.2017 04:10 17,3 C 76 % 1009,7 hPa 0,0 l/m 17,3 km/h (3 Bft) S22.5 180 0 min 0 lux 0 W/m
29.07.2017 04:16 17,4 C 76 % 1009,7 hPa 0,0 l/m 19,6 km/h (3 Bft) S22.5 180 0 min 0 lux 0 W/m
29.07.2017 04:21 17,5 C 76 % 1009,7 hPa 0,0 l/m 17,8 km/h (3 Bft) S22.5 180 0 min 0 lux 0 W/m
29.07.2017 04:25 17,5 C 76 % 1009,7 hPa 0,0 l/m 14,4 km/h (3 Bft) S22.5 185 0 min 0 lux 0 W/m
29.07.2017 04:30 17,5 C 76 % 1009,7 hPa 0,0 l/m 16,3 km/h (3 Bft) S22.5 170 0 min 0 lux 0 W/m
29.07.2017 04:35 17,5 C 75 % 1009,7 hPa 0,0 l/m 15,7 km/h (3 Bft) S22.5 170 0 min 0 lux 0 W/m
29.07.2017 04:41 17,5 C 75 % 1009,7 hPa 0,0 l/m 19,1 km/h (3 Bft) S45 175 0 min 0 lux 0 W/m
29.07.2017 04:46 17,5 C 75 % 1009,7 hPa 0,0 l/m 17,0 km/h (3 Bft) S22.5 180 0 min 0 lux 0 W/m
29.07.2017 04:50 17,5 C 75 % 1009,7 hPa 0,0 l/m 14,6 km/h (3 Bft) S22.5 180 0 min 0 lux 0 W/m
29.07.2017 04:55 17,6 C 75 % 1009,7 hPa 0,0 l/m 20,1 km/h (4 Bft) S22.5 180 0 min 0 lux 0 W/m
29.07.2017 05:00 17,6 C 74 % 1009,7 hPa 0,0 l/m 18,9 km/h (3 Bft) S22.5 180 0 min 0 lux 0 W/m
29.07.2017 05:06 17,7 C 74 % 1009,7 hPa 0,0 l/m 19,0 km/h (3 Bft) S22.5 180 0 min 0 lux 0 W/m
29.07.2017 05:10 17,7 C 74 % 1009,7 hPa 0,0 l/m 19,8 km/h (3 Bft) S22.5 180 0 min 0 lux 0 W/m
29.07.2017 05:15 17,7 C 74 % 1009,7 hPa 0,0 l/m 18,1 km/h (3 Bft) S22.5 185 0 min 0 lux 0 W/m
29.07.2017 05:20 17,8 C 74 % 1009,7 hPa 0,0 l/m 18,2 km/h (3 Bft) S45 185 0 min 0 lux 0 W/m
29.07.2017 05:26 17,7 C 73 % 1009,7 hPa 0,0 l/m 16,1 km/h (3 Bft) S22.5 185 0 min 0 lux 0 W/m
29.07.2017 05:31 17,7 C 73 % 1009,7 hPa 0,0 l/m 15,2 km/h (3 Bft) S22.5 180 0 min 0 lux 0 W/m
29.07.2017 05:35 17,7 C 73 % 1009,7 hPa 0,0 l/m 17,4 km/h (3 Bft) S45 185 0 min 0 lux 0 W/m
29.07.2017 05:40 17,7 C 73 % 1009,7 hPa 0,0 l/m 17,1 km/h (3 Bft) S45 180 0 min 49 lux 0 W/m
29.07.2017 05:45 17,8 C 73 % 1009,7 hPa 0,0 l/m 18,2 km/h (3 Bft) S22.5 180 0 min 100 lux 0 W/m
29.07.2017 05:51 17,8 C 73 % 1009,7 hPa 0,0 l/m 19,1 km/h (3 Bft) S22.5 180 0 min 118 lux 0 W/m
29.07.2017 05:56 17,8 C 72 % 1009,7 hPa 0,0 l/m 18,8 km/h (3 Bft) S22.5 185 0 min 118 lux 0 W/m
29.07.2017 06:00 17,8 C 72 % 1009,7 hPa 0,0 l/m 18,8 km/h (3 Bft) S22.5 185 0 min 303 lux 2 W/m
29.07.2017 06:06 17,8 C 72 % 1009,7 hPa 0,0 l/m 19,2 km/h (3 Bft) S22.5 185 0 min 482 lux 3 W/m
29.07.2017 06:11 17,8 C 73 % 1009,7 hPa 0,0 l/m 16,0 km/h (3 Bft) S45 180 0 min 589 lux 4 W/m
29.07.2017 06:16 17,7 C 73 % 1009,7 hPa 0,0 l/m 16,2 km/h (3 Bft) S22.5 175 0 min 1,10 klux 8 W/m
29.07.2017 06:20 17,6 C 73 % 1009,7 hPa 0,0 l/m 18,1 km/h (3 Bft) S22.5 180 0 min 1,13 klux 8 W/m
29.07.2017 06:25 17,7 C 73 % 1009,7 hPa 0,0 l/m 17,9 km/h (3 Bft) S22.5 175 0 min 1,53 klux 10 W/m
29.07.2017 06:30 17,6 C 73 % 1009,7 hPa 0,0 l/m 17,3 km/h (3 Bft) S22.5 185 0 min 2,20 klux 15 W/m
29.07.2017 06:36 17,6 C 73 % 1009,7 hPa 0,0 l/m 18,4 km/h (3 Bft) S22.5 180 0 min 2,64 klux 18 W/m
29.07.2017 06:41 17,8 C 73 % 1009,7 hPa 0,0 l/m 18,7 km/h (3 Bft) S45 175 0 min 3,09 klux 21 W/m
29.07.2017 06:45 17,8 C 73 % 1009,7 hPa 0,0 l/m 18,8 km/h (3 Bft) S22.5 175 0 min 3,85 klux 26 W/m
29.07.2017 06:50 17,8 C 73 % 1009,7 hPa 0,0 l/m 22,0 km/h (4 Bft) S45 175 0 min 4,81 klux 33 W/m
29.07.2017 06:55 17,8 C 73 % 1009,7 hPa 0,0 l/m 17,0 km/h (3 Bft) S22.5 175 0 min 6,56 klux 45 W/m
29.07.2017 07:01 18,0 C 73 % 1009,7 hPa 0,0 l/m 16,2 km/h (3 Bft) S22.5 175 0 min 6,16 klux 42 W/m
29.07.2017 07:05 18,0 C 73 % 1009,7 hPa 0,0 l/m 18,9 km/h (3 Bft) S22.5 180 0 min 4,60 klux 31 W/m
29.07.2017 07:10 18,0 C 73 % 1009,7 hPa 0,0 l/m 17,0 km/h (3 Bft) S22.5 180 0 min 5,58 klux 38 W/m
29.07.2017 07:16 18,0 C 72 % 1009,7 hPa 0,0 l/m 20,0 km/h (4 Bft) S22.5 190 0 min 6,35 klux 43 W/m
29.07.2017 07:21 18,1 C 72 % 1009,7 hPa 0,0 l/m 20,3 km/h (4 Bft) S22.5 180 0 min 6,47 klux 44 W/m
29.07.2017 07:26 18,1 C 72 % 1009,7 hPa 0,0 l/m 19,7 km/h (3 Bft) S22.5 180 0 min 6,67 klux 46 W/m
29.07.2017 07:30 18,2 C 72 % 1009,7 hPa 0,0 l/m 14,1 km/h (3 Bft) S45 175 0 min 7,51 klux 51 W/m
29.07.2017 07:35 18,2 C 72 % 1009,7 hPa 0,0 l/m 18,3 km/h (3 Bft) S22.5 175 5 min 20,9 klux 143 W/m
29.07.2017 07:40 18,4 C 72 % 1009,7 hPa 0,0 l/m 16,4 km/h (3 Bft) S22.5 190 0 min 11,0 klux 75 W/m
29.07.2017 07:46 18,5 C 72 % 1009,7 hPa 0,0 l/m 17,2 km/h (3 Bft) S22.5 190 0 min 8,54 klux 58 W/m
29.07.2017 07:51 18,7 C 71 % 1009,7 hPa 0,0 l/m 22,7 km/h (4 Bft) S22.5 190 0 min 9,3 klux 64 W/m
29.07.2017 07:55 19,0 C 71 % 1009,7 hPa 0,0 l/m 20,8 km/h (4 Bft) S-SW45 195 4 min 36,1 klux 247 W/m
29.07.2017 08:00 19,2 C 71 % 1009,7 hPa 0,0 l/m 17,7 km/h (3 Bft) S-SW45 195 5 min 34,7 klux 237 W/m
29.07.2017 08:06 19,6 C 68 % 1009,6 hPa 0,0 l/m 26,6 km/h (4 Bft) SW45 215 6 min 26,2 klux 179 W/m
29.07.2017 08:10 19,7 C 68 % 1009,6 hPa 0,0 l/m 22,6 km/h (4 Bft) S-SW22.5 210 0 min 18,8 klux 129 W/m
29.07.2017 08:15 19,7 C 68 % 1009,6 hPa 0,0 l/m 22,2 km/h (4 Bft) S-SW45 205 0 min 27,1 klux 185 W/m
29.07.2017 08:20 19,8 C 68 % 1009,6 hPa 0,0 l/m 29,3 km/h (5 Bft) S-SW45 200 0 min 16,6 klux 114 W/m
29.07.2017 08:26 19,8 C 68 % 1009,6 hPa 0,0 l/m 23,5 km/h (4 Bft) SW22.5 215 0 min 11,5 klux 79 W/m
29.07.2017 08:31 19,6 C 68 % 1009,6 hPa 0,0 l/m 32,6 km/h (5 Bft) SW45 215 0 min 9,9 klux 67 W/m
29.07.2017 08:35 19,6 C 67 % 1009,6 hPa 0,0 l/m 38,2 km/h (6 Bft) SW67.5 230 0 min 12,9 klux 88 W/m
29.07.2017 08:40 19,6 C 67 % 1009,6 hPa 0,0 l/m 36,5 km/h (5 Bft) SW22.5 225 0 min 17,9 klux 122 W/m
29.07.2017 08:45 19,7 C 68 % 1009,6 hPa 0,0 l/m 32,7 km/h (5 Bft) SW45 220 0 min 14,4 klux 98 W/m
29.07.2017 08:50 19,7 C 67 % 1009,6 hPa 0,0 l/m 30,3 km/h (5 Bft) SW22.5 235 0 min 13,8 klux 94 W/m
29.07.2017 08:55 19,7 C 67 % 1009,6 hPa 0,0 l/m 34,0 km/h (5 Bft) SW45 230 0 min 13,5 klux 92 W/m
29.07.2017 09:00 19,7 C 67 % 1009,6 hPa 0,0 l/m 31,1 km/h (5 Bft) SW45 215 0 min 15,6 klux 107 W/m
29.07.2017 09:05 19,8 C 67 % 1009,6 hPa 0,0 l/m 30,5 km/h (5 Bft) SW45 230 0 min 16,6 klux 114 W/m
29.07.2017 09:10 19,8 C 67 % 1009,6 hPa 0,0 l/m 34,3 km/h (5 Bft) SW67.5 230 0 min 21,5 klux 147 W/m
29.07.2017 09:15 19,9 C 66 % 1010,6 hPa 0,0 l/m 37,7 km/h (5 Bft) SW67.5 230 0 min 32,0 klux 219 W/m
29.07.2017 09:20 20,3 C 66 % 1010,6 hPa 0,0 l/m 36,0 km/h (5 Bft) SW45 220 0 min 35,4 klux 242 W/m
29.07.2017 09:25 20,3 C 65 % 1010,6 hPa 0,0 l/m 40,8 km/h (6 Bft) W-SW45 240 0 min 18,0 klux 123 W/m
29.07.2017 09:30 20,0 C 66 % 1010,6 hPa 0,0 l/m 33,9 km/h (5 Bft) SW22.5 225 0 min 16,5 klux 113 W/m
29.07.2017 09:35 20,0 C 67 % 1010,6 hPa 0,0 l/m 34,9 km/h (5 Bft) SW45 230 0 min 13,6 klux 93 W/m
29.07.2017 09:40 19,9 C 66 % 1010,6 hPa 0,0 l/m 32,1 km/h (5 Bft) SW67.5 225 0 min 19,5 klux 133 W/m
29.07.2017 09:45 19,9 C 66 % 1010,6 hPa 0,0 l/m 34,0 km/h (5 Bft) SW45 230 0 min 24,5 klux 168 W/m
29.07.2017 09:50 20,2 C 67 % 1010,6 hPa 0,0 l/m 29,5 km/h (5 Bft) SW45 230 0 min 43,0 klux 294 W/m
29.07.2017 09:56 20,3 C 66 % 1010,6 hPa 0,0 l/m 33,9 km/h (5 Bft) SW45 225 6 min 57,2 klux 391 W/m
29.07.2017 10:01 20,4 C 66 % 1010,6 hPa 0,0 l/m 31,3 km/h (5 Bft) SW22.5 225 0 min 23,6 klux 161 W/m
29.07.2017 10:05 20,6 C 66 % 1010,6 hPa 0,0 l/m 30,8 km/h (5 Bft) SW22.5 225 0 min 24,2 klux 166 W/m
29.07.2017 10:10 20,7 C 66 % 1010,6 hPa 0,0 l/m 29,0 km/h (5 Bft) SW22.5 230 5 min 78,4 klux 536 W/m
29.07.2017 10:16 21,0 C 66 % 1010,6 hPa 0,0 l/m 32,4 km/h (5 Bft) SW45 230 0 min 37,1 klux 254 W/m
29.07.2017 10:20 21,6 C 64 % 1010,6 hPa 0,0 l/m 31,1 km/h (5 Bft) SW22.5 225 4 min 85,4 klux 584 W/m
29.07.2017 10:25 21,7 C 63 % 1010,6 hPa 0,0 l/m 36,5 km/h (5 Bft) SW22.5 230 5 min 55,4 klux 379 W/m
29.07.2017 10:30 21,7 C 64 % 1010,6 hPa 0,0 l/m 35,2 km/h (5 Bft) W-SW45 240 0 min 38,9 klux 266 W/m
29.07.2017 10:36 21,4 C 64 % 1010,6 hPa 0,0 l/m 37,5 km/h (5 Bft) SW45 230 0 min 34,1 klux 233 W/m
29.07.2017 10:41 21,4 C 64 % 1010,6 hPa 0,0 l/m 31,3 km/h (5 Bft) SW45 230 0 min 32,7 klux 224 W/m
29.07.2017 10:45 21,4 C 64 % 1010,6 hPa 0,0 l/m 36,7 km/h (5 Bft) SW22.5 215 0 min 24,9 klux 170 W/m
29.07.2017 10:50 21,3 C 65 % 1010,6 hPa 0,0 l/m 33,1 km/h (5 Bft) SW45 230 0 min 31,3 klux 214 W/m
29.07.2017 10:55 21,4 C 64 % 1010,6 hPa 0,0 l/m 32,9 km/h (5 Bft) SW22.5 220 0 min 26,8 klux 183 W/m
29.07.2017 11:01 21,4 C 65 % 1010,6 hPa 0,0 l/m 33,1 km/h (5 Bft) SW45 225 0 min 16,4 klux 112 W/m
29.07.2017 11:05 21,2 C 64 % 1010,6 hPa 0,0 l/m 25,4 km/h (4 Bft) SW45 225 0 min 16,3 klux 111 W/m
29.07.2017 11:10 21,2 C 65 % 1010,6 hPa 0,0 l/m 27,6 km/h (5 Bft) W-SW22.5 240 0 min 16,3 klux 111 W/m
29.07.2017 11:15 21,1 C 66 % 1010,6 hPa 0,0 l/m 32,6 km/h (5 Bft) SW45 220 0 min 16,3 klux 111 W/m
29.07.2017 11:21 21,2 C 66 % 1010,6 hPa 0,0 l/m 27,0 km/h (5 Bft) SW45 215 0 min 16,9 klux 116 W/m
29.07.2017 11:26 21,2 C 65 % 1010,6 hPa 0,0 l/m 30,3 km/h (5 Bft) SW45 225 0 min 19,0 klux 130 W/m
29.07.2017 11:30 21,4 C 65 % 1010,6 hPa 0,0 l/m 33,1 km/h (5 Bft) SW45 225 0 min 35,5 klux 243 W/m
29.07.2017 11:35 21,7 C 65 % 1010,6 hPa 0,0 l/m 34,2 km/h (5 Bft) SW45 220 0 min 42,6 klux 291 W/m
29.07.2017 11:40 21,9 C 64 % 1010,6 hPa 0,0 l/m 29,8 km/h (5 Bft) SW22.5 215 0 min 38,1 klux 261 W/m
29.07.2017 11:46 22,0 C 65 % 1010,6 hPa 0,0 l/m 35,6 km/h (5 Bft) SW45 225 0 min 36,8 klux 252 W/m
29.07.2017 11:51 22,0 C 64 % 1010,6 hPa 0,0 l/m 31,3 km/h (5 Bft) SW45 225 0 min 25,2 klux 172 W/m
29.07.2017 11:56 22,2 C 64 % 1010,6 hPa 0,0 l/m 23,0 km/h (4 Bft) SW45 220 0 min 35,2 klux 241 W/m
29.07.2017 12:00 22,4 C 63 % 1010,6 hPa 0,0 l/m 22,5 km/h (4 Bft) SW67.5 235 0 min 34,4 klux 235 W/m
29.07.2017 12:06 22,3 C 63 % 1010,6 hPa 0,0 l/m 33,4 km/h (5 Bft) SW45 225 0 min 37,4 klux 256 W/m
29.07.2017 12:11 22,5 C 64 % 1010,6 hPa 0,0 l/m 29,7 km/h (5 Bft) SW45 225 0 min 44,7 klux 306 W/m
29.07.2017 12:15 22,8 C 63 % 1010,6 hPa 0,0 l/m 25,3 km/h (4 Bft) SW67.5 220 0 min 57,2 klux 391 W/m
29.07.2017 12:20 23,0 C 62 % 1010,6 hPa 0,0 l/m 28,7 km/h (5 Bft) SW45 235 0 min 49,5 klux 339 W/m
29.07.2017 12:25 23,0 C 62 % 1010,6 hPa 0,0 l/m 33,8 km/h (5 Bft) SW45 220 0 min 50,0 klux 342 W/m
29.07.2017 12:31 23,2 C 62 % 1010,6 hPa 0,0 l/m 37,8 km/h (5 Bft) SW45 235 6 min 98,2 klux 672 W/m
29.07.2017 12:36 23,3 C 61 % 1010,6 hPa 0,0 l/m 32,0 km/h (5 Bft) SW22.5 230 5 min 73,2 klux 501 W/m
29.07.2017 12:40 23,4 C 61 % 1010,6 hPa 0,0 l/m 35,0 km/h (5 Bft) SW67.5 220 4 min 78,7 klux 538 W/m
29.07.2017 12:45 23,4 C 61 % 1010,6 hPa 0,0 l/m 34,0 km/h (5 Bft) SW45 230 5 min 72,0 klux 492 W/m
29.07.2017 12:50 23,4 C 60 % 1010,6 hPa 0,0 l/m 30,9 km/h (5 Bft) W-SW22.5 245 5 min 69,7 klux 477 W/m
29.07.2017 12:51 23,4 C 60 % 1010,6 hPa 0,0 l/m 30,9 km/h (5 Bft) W-SW22.5 245 1 min 69,7 klux 477 W/m
29.07.2017 12:55 23,8 C 61 % 1010,6 hPa 0,0 l/m 30,3 km/h (5 Bft) W-SW22.5 245 0 min 55,8 klux 382 W/m
29.07.2017 13:00 23,6 C 60 % 1010,6 hPa 0,0 l/m 32,0 km/h (5 Bft) SW45 230 0 min 60,8 klux 416 W/m
29.07.2017 13:05 23,7 C 59 % 1010,6 hPa 0,0 l/m 39,9 km/h (6 Bft) SW67.5 225 0 min 47,0 klux 321 W/m
29.07.2017 13:10 23,6 C 60 % 1010,6 hPa 0,0 l/m 36,6 km/h (5 Bft) SW45 220 0 min 43,5 klux 298 W/m
29.07.2017 13:15 24,0 C 60 % 1010,6 hPa 0,0 l/m 34,8 km/h (5 Bft) W-SW45 240 0 min 51,7 klux 354 W/m
29.07.2017 13:21 23,7 C 60 % 1010,6 hPa 0,0 l/m 42,0 km/h (6 Bft) W22.5 260 0 min 29,0 klux 198 W/m
29.07.2017 13:26 24,4 C 58 % 1010,6 hPa 0,0 l/m 32,8 km/h (5 Bft) W-SW45 245 5 min 89,0 klux 609 W/m
29.07.2017 13:30 24,5 C 58 % 1010,6 hPa 0,0 l/m 34,8 km/h (5 Bft) W-SW45 240 4 min 88,0 klux 602 W/m
29.07.2017 13:35 25,1 C 58 % 1010,6 hPa 0,0 l/m 34,6 km/h (5 Bft) W-SW45 240 5 min 89,3 klux 611 W/m
29.07.2017 13:40 25,0 C 58 % 1010,6 hPa 0,0 l/m 37,0 km/h (5 Bft) W-SW45 250 5 min 82,5 klux 564 W/m
29.07.2017 13:46 25,0 C 58 % 1010,6 hPa 0,0 l/m 32,6 km/h (5 Bft) W-SW45 240 0 min 45,6 klux 312 W/m
29.07.2017 13:51 25,0 C 56 % 1010,6 hPa 0,0 l/m 29,3 km/h (5 Bft) SW45 230 0 min 50,9 klux 348 W/m
29.07.2017 13:56 24,8 C 56 % 1010,6 hPa 0,0 l/m 33,0 km/h (5 Bft) SW45 225 0 min 51,0 klux 349 W/m
29.07.2017 14:00 24,8 C 57 % 1010,6 hPa 0,0 l/m 34,0 km/h (5 Bft) SW45 225 0 min 66,0 klux 451 W/m
29.07.2017 14:06 24,8 C 57 % 1010,6 hPa 0,0 l/m 27,0 km/h (5 Bft) SW45 225 0 min 45,9 klux 314 W/m
29.07.2017 14:11 25,1 C 57 % 1010,6 hPa 0,0 l/m 30,1 km/h (5 Bft) W-SW22.5 240 0 min 63,5 klux 434 W/m
29.07.2017 14:15 25,2 C 56 % 1010,6 hPa 0,0 l/m 33,3 km/h (5 Bft) W-SW45 250 0 min 59,1 klux 404 W/m
29.07.2017 14:20 25,6 C 56 % 1010,6 hPa 0,0 l/m 30,0 km/h (5 Bft) SW22.5 235 5 min 97,3 klux 666 W/m
29.07.2017 14:25 25,8 C 54 % 1010,6 hPa 0,0 l/m 32,9 km/h (5 Bft) SW45 215 5 min 89,4 klux 611 W/m
29.07.2017 14:31 25,2 C 55 % 1010,6 hPa 0,0 l/m 40,8 km/h (6 Bft) SW45 225 6 min 66,2 klux 453 W/m
29.07.2017 14:36 25,5 C 54 % 1010,6 hPa 0,0 l/m 32,0 km/h (5 Bft) W-SW45 245 5 min 97,8 klux 669 W/m
29.07.2017 14:40 25,7 C 54 % 1010,6 hPa 0,0 l/m 36,2 km/h (5 Bft) SW45 235 0 min 44,8 klux 306 W/m
29.07.2017 14:45 25,6 C 54 % 1010,6 hPa 0,0 l/m 38,0 km/h (6 Bft) W-SW45 245 5 min 80,6 klux 551 W/m
29.07.2017 14:50 25,6 C 56 % 1010,6 hPa 0,0 l/m 37,3 km/h (5 Bft) W-SW22.5 245 0 min 46,2 klux 316 W/m
29.07.2017 14:56 25,6 C 55 % 1010,6 hPa 0,0 l/m 33,3 km/h (5 Bft) SW22.5 225 6 min 108 klux 739 W/m
29.07.2017 15:01 25,5 C 57 % 1010,6 hPa 0,0 l/m 33,9 km/h (5 Bft) W-SW45 250 0 min 31,9 klux 218 W/m
29.07.2017 15:05 25,3 C 56 % 1010,6 hPa 0,0 l/m 33,8 km/h (5 Bft) SW45 235 0 min 22,5 klux 154 W/m
29.07.2017 15:11 24,8 C 58 % 1009,6 hPa 0,0 l/m 33,2 km/h (5 Bft) SW45 225 0 min 16,4 klux 112 W/m
29.07.2017 15:16 24,6 C 58 % 1009,6 hPa 0,0 l/m 27,4 km/h (5 Bft) SW45 235 0 min 19,2 klux 131 W/m
29.07.2017 15:21 24,8 C 58 % 1010,6 hPa 0,0 l/m 32,0 km/h (5 Bft) SW45 235 0 min 35,7 klux 244 W/m
29.07.2017 15:25 24,9 C 58 % 1010,6 hPa 0,0 l/m 31,3 km/h (5 Bft) SW22.5 220 0 min 33,3 klux 228 W/m
29.07.2017 15:30 25,0 C 58 % 1010,6 hPa 0,0 l/m 28,6 km/h (5 Bft) SW45 230 5 min 89,4 klux 611 W/m
29.07.2017 15:35 25,6 C 57 % 1009,6 hPa 0,0 l/m 30,3 km/h (5 Bft) W-SW67.5 240 5 min 70,0 klux 479 W/m
29.07.2017 15:41 25,6 C 57 % 1009,6 hPa 0,0 l/m 27,9 km/h (5 Bft) SW67.5 230 0 min 57,2 klux 391 W/m
29.07.2017 15:46 25,9 C 57 % 1009,6 hPa 0,0 l/m 29,8 km/h (5 Bft) SW45 230 5 min 86,7 klux 593 W/m
29.07.2017 15:50 26,5 C 56 % 1009,6 hPa 0,0 l/m 29,6 km/h (5 Bft) SW45 220 4 min 93,1 klux 637 W/m
29.07.2017 15:55 26,7 C 55 % 1009,6 hPa 0,0 l/m 28,6 km/h (5 Bft) SW22.5 220 0 min 53,6 klux 367 W/m
29.07.2017 16:00 26,4 C 56 % 1009,6 hPa 0,0 l/m 28,6 km/h (5 Bft) SW22.5 220 0 min 31,1 klux 213 W/m
29.07.2017 16:05 26,0 C 56 % 1009,6 hPa 0,0 l/m 30,1 km/h (5 Bft) SW22.5 225 0 min 39,6 klux 271 W/m
29.07.2017 16:10 26,1 C 57 % 1009,6 hPa 0,0 l/m 29,5 km/h (5 Bft) SW45 215 5 min 58,7 klux 402 W/m
29.07.2017 16:15 26,2 C 57 % 1009,6 hPa 0,0 l/m 24,5 km/h (4 Bft) SW45 220 0 min 33,0 klux 226 W/m
29.07.2017 16:21 26,1 C 57 % 1009,6 hPa 0,0 l/m 36,3 km/h (5 Bft) SW45 220 6 min 83,8 klux 573 W/m
29.07.2017 16:26 25,9 C 58 % 1009,6 hPa 0,0 l/m 30,4 km/h (5 Bft) SW45 230 5 min 70,5 klux 482 W/m
29.07.2017 16:30 25,9 C 58 % 1009,6 hPa 0,0 l/m 33,6 km/h (5 Bft) W-SW45 240 0 min 32,9 klux 225 W/m
29.07.2017 16:35 25,6 C 58 % 1009,6 hPa 0,0 l/m 27,9 km/h (5 Bft) SW45 220 0 min 30,0 klux 205 W/m
29.07.2017 16:40 25,5 C 59 % 1009,6 hPa 0,0 l/m 28,3 km/h (5 Bft) SW22.5 225 0 min 21,2 klux 145 W/m
29.07.2017 16:46 25,3 C 58 % 1009,6 hPa 0,0 l/m 28,3 km/h (5 Bft) SW45 235 0 min 18,7 klux 128 W/m
29.07.2017 16:51 25,1 C 60 % 1009,6 hPa 0,0 l/m 29,1 km/h (5 Bft) SW22.5 235 0 min 19,9 klux 136 W/m
29.07.2017 16:55 25,0 C 60 % 1009,6 hPa 0,0 l/m 23,6 km/h (4 Bft) SW45 235 0 min 16,6 klux 114 W/m
29.07.2017 17:00 24,9 C 60 % 1009,6 hPa 0,0 l/m 28,6 km/h (5 Bft) SW67.5 225 0 min 23,8 klux 163 W/m
29.07.2017 17:06 25,0 C 60 % 1009,6 hPa 0,0 l/m 25,0 km/h (4 Bft) W-SW45 245 6 min 69,7 klux 477 W/m
29.07.2017 17:10 25,6 C 59 % 1009,6 hPa 0,0 l/m 23,9 km/h (4 Bft) SW45 225 0 min 30,1 klux 206 W/m
29.07.2017 17:15 25,4 C 60 % 1009,6 hPa 0,0 l/m 26,0 km/h (4 Bft) W-SW45 240 0 min 23,8 klux 163 W/m
29.07.2017 17:20 25,3 C 60 % 1009,6 hPa 0,0 l/m 21,3 km/h (4 Bft) W-SW22.5 240 0 min 21,6 klux 148 W/m
29.07.2017 17:26 25,2 C 60 % 1009,6 hPa 0,0 l/m 23,8 km/h (4 Bft) W-SW45 245 0 min 24,5 klux 168 W/m
29.07.2017 17:31 25,4 C 61 % 1009,6 hPa 0,0 l/m 21,5 km/h (4 Bft) SW45 230 0 min 44,4 klux 304 W/m
29.07.2017 17:36 25,8 C 59 % 1009,6 hPa 0,0 l/m 25,4 km/h (4 Bft) SW22.5 230 5 min 71,5 klux 489 W/m
29.07.2017 17:40 25,5 C 59 % 1009,6 hPa 0,0 l/m 23,2 km/h (4 Bft) SW45 225 0 min 14,2 klux 97 W/m
29.07.2017 17:45 25,2 C 61 % 1009,6 hPa 0,0 l/m 23,8 km/h (4 Bft) SW45 225 0 min 19,3 klux 132 W/m
29.07.2017 17:51 25,4 C 60 % 1009,6 hPa 0,0 l/m 26,5 km/h (4 Bft) SW22.5 230 0 min 20,6 klux 141 W/m
29.07.2017 17:56 25,9 C 59 % 1009,6 hPa 0,0 l/m 20,8 km/h (4 Bft) SW22.5 215 5 min 62,1 klux 425 W/m
29.07.2017 18:01 26,4 C 57 % 1009,6 hPa 0,0 l/m 21,4 km/h (4 Bft) SW22.5 230 5 min 55,6 klux 380 W/m
29.07.2017 18:05 26,2 C 57 % 1009,6 hPa 0,0 l/m 22,5 km/h (4 Bft) SW45 215 0 min 14,7 klux 101 W/m
29.07.2017 18:11 25,8 C 59 % 1009,6 hPa 0,0 l/m 21,0 km/h (4 Bft) SW45 225 6 min 51,4 klux 352 W/m
29.07.2017 18:16 25,9 C 59 % 1009,6 hPa 0,0 l/m 20,1 km/h (4 Bft) SW22.5 225 5 min 54,8 klux 375 W/m
29.07.2017 18:20 26,3 C 57 % 1008,6 hPa 0,0 l/m 21,7 km/h (4 Bft) W-SW45 240 4 min 49,2 klux 337 W/m
29.07.2017 18:25 26,0 C 57 % 1008,6 hPa 0,0 l/m 26,3 km/h (4 Bft) SW45 230 5 min 42,1 klux 288 W/m
29.07.2017 18:30 26,2 C 57 % 1008,6 hPa 0,0 l/m 18,2 km/h (3 Bft) SW22.5 230 5 min 42,3 klux 289 W/m
29.07.2017 18:36 26,6 C 57 % 1008,6 hPa 0,0 l/m 15,0 km/h (3 Bft) W-SW67.5 240 6 min 41,0 klux 280 W/m
29.07.2017 18:41 26,7 C 56 % 1008,6 hPa 0,0 l/m 17,3 km/h (3 Bft) SW45 225 5 min 39,6 klux 271 W/m
29.07.2017 18:45 26,8 C 55 % 1008,6 hPa 0,0 l/m 18,6 km/h (3 Bft) SW45 230 4 min 37,8 klux 259 W/m
29.07.2017 18:50 26,7 C 56 % 1008,6 hPa 0,0 l/m 19,6 km/h (3 Bft) SW22.5 230 5 min 37,2 klux 254 W/m
29.07.2017 18:55 26,8 C 55 % 1008,6 hPa 0,0 l/m 17,5 km/h (3 Bft) SW22.5 235 5 min 36,1 klux 247 W/m
29.07.2017 19:01 27,0 C 56 % 1008,6 hPa 0,0 l/m 13,1 km/h (3 Bft) SW22.5 225 6 min 35,9 klux 246 W/m
29.07.2017 19:05 26,9 C 55 % 1008,6 hPa 0,0 l/m 9,8 km/h (2 Bft) S-SW22.5 210 4 min 33,6 klux 230 W/m
29.07.2017 19:10 26,9 C 55 % 1008,6 hPa 0,0 l/m 15,6 km/h (3 Bft) SW45 230 5 min 32,2 klux 220 W/m
29.07.2017 19:16 27,0 C 55 % 1008,6 hPa 0,0 l/m 11,3 km/h (2 Bft) SW22.5 220 6 min 31,6 klux 216 W/m
29.07.2017 19:21 27,1 C 55 % 1008,6 hPa 0,0 l/m 10,9 km/h (2 Bft) S-SW45 200 5 min 29,9 klux 205 W/m
29.07.2017 19:25 27,2 C 54 % 1008,6 hPa 0,0 l/m 10,7 km/h (2 Bft) SW22.5 225 4 min 30,0 klux 205 W/m
29.07.2017 19:30 27,2 C 54 % 1008,6 hPa 0,0 l/m 6,7 km/h (2 Bft) SW 235 5 min 29,6 klux 202 W/m
29.07.2017 19:35 27,4 C 54 % 1007,5 hPa 0,0 l/m 9,7 km/h (2 Bft) S-SW45 205 5 min 27,1 klux 185 W/m
29.07.2017 19:41 27,2 C 55 % 1007,5 hPa 0,0 l/m 6,7 km/h (2 Bft) S-SW22.5 195 6 min 27,8 klux 190 W/m
29.07.2017 19:46 27,2 C 55 % 1007,5 hPa 0,0 l/m 7,9 km/h (2 Bft) S22.5 170 5 min 25,0 klux 171 W/m
29.07.2017 19:50 27,2 C 55 % 1007,5 hPa 0,0 l/m 6,5 km/h (2 Bft) S 175 4 min 24,4 klux 167 W/m
29.07.2017 19:55 27,4 C 55 % 1007,5 hPa 0,0 l/m 6,6 km/h (2 Bft) S 170 5 min 22,7 klux 155 W/m
29.07.2017 20:00 27,3 C 55 % 1007,5 hPa 0,0 l/m 0,4 km/h (0 Bft) S 170 5 min 22,1 klux 151 W/m
29.07.2017 20:05 27,3 C 55 % 1007,5 hPa 0,0 l/m 0,7 km/h (0 Bft) S 170 5 min 20,6 klux 141 W/m
29.07.2017 20:10 27,0 C 56 % 1007,5 hPa 0,0 l/m 1,0 km/h (0 Bft) S22.5 185 5 min 19,1 klux 131 W/m
29.07.2017 20:15 26,6 C 56 % 1007,6 hPa 0,0 l/m 0,3 km/h (0 Bft) S-SW 205 0 min 8,05 klux 55 W/m
29.07.2017 20:21 26,4 C 57 % 1007,6 hPa 0,0 l/m 0,0 km/h (0 Bft) S-SW 205 0 min 9,9 klux 68 W/m
29.07.2017 20:26 25,9 C 58 % 1007,6 hPa 0,0 l/m 0,0 km/h (0 Bft) O-SO 120 0 min 3,15 klux 22 W/m
29.07.2017 20:30 25,6 C 58 % 1007,6 hPa 0,0 l/m 4,8 km/h (1 Bft) O-SO45 120 0 min 3,27 klux 22 W/m
29.07.2017 20:35 25,4 C 59 % 1006,6 hPa 0,0 l/m 0,1 km/h (0 Bft) S-SO22.5 150 0 min 3,11 klux 21 W/m
29.07.2017 20:40 25,2 C 60 % 1006,6 hPa 0,0 l/m 7,2 km/h (2 Bft) SO22.5 140 0 min 2,55 klux 17 W/m
29.07.2017 20:46 25,0 C 61 % 1006,6 hPa 0,0 l/m 1,1 km/h (1 Bft) S-SO 150 0 min 2,87 klux 20 W/m
29.07.2017 20:51 25,0 C 61 % 1006,6 hPa 0,0 l/m 0,7 km/h (0 Bft) SO 140 0 min 2,45 klux 17 W/m
29.07.2017 20:55 24,9 C 61 % 1006,6 hPa 0,0 l/m 0,2 km/h (0 Bft) SO 140 0 min 2,16 klux 15 W/m
29.07.2017 21:00 24,8 C 62 % 1006,6 hPa 0,0 l/m 1,3 km/h (1 Bft) S-SO22.5 155 0 min 2,04 klux 14 W/m
29.07.2017 21:06 24,7 C 62 % 1006,6 hPa 0,0 l/m 8,9 km/h (2 Bft) SO22.5 135 0 min 1,29 klux 9 W/m
29.07.2017 21:10 24,8 C 62 % 1006,6 hPa 0,0 l/m 1,8 km/h (1 Bft) SO22.5 130 0 min 595 lux 4 W/m
29.07.2017 21:15 24,6 C 63 % 1006,6 hPa 0,0 l/m 7,7 km/h (2 Bft) SO45 135 0 min 301 lux 2 W/m
29.07.2017 21:20 24,5 C 64 % 1006,6 hPa 0,0 l/m 8,8 km/h (2 Bft) SO22.5 140 0 min 299 lux 0 W/m
29.07.2017 21:26 24,4 C 64 % 1006,6 hPa 0,0 l/m 2,0 km/h (1 Bft) SO22.5 135 0 min 206 lux 0 W/m
29.07.2017 21:31 24,3 C 64 % 1006,6 hPa 0,0 l/m 2,2 km/h (1 Bft) SO22.5 145 0 min 100 lux 0 W/m
29.07.2017 21:35 24,2 C 65 % 1006,6 hPa 0,0 l/m 7,6 km/h (2 Bft) S-SO22.5 155 0 min 42 lux 0 W/m
29.07.2017 21:40 24,2 C 65 % 1006,6 hPa 0,0 l/m 6,5 km/h (2 Bft) S-SO22.5 155 0 min 22 lux 0 W/m
29.07.2017 21:45 24,1 C 66 % 1006,6 hPa 0,0 l/m 9,6 km/h (2 Bft) S-SO22.5 160 0 min 11 lux 0 W/m
29.07.2017 21:51 24,1 C 65 % 1006,6 hPa 0,0 l/m 9,4 km/h (2 Bft) S-SO 165 0 min 2 lux 0 W/m
29.07.2017 21:56 24,1 C 66 % 1006,6 hPa 0,0 l/m 6,8 km/h (2 Bft) S-SO 160 0 min 2 lux 0 W/m
29.07.2017 22:00 24,0 C 66 % 1006,6 hPa 0,0 l/m 6,4 km/h (2 Bft) S-SO 160 0 min 0 lux 0 W/m
29.07.2017 22:06 24,1 C 65 % 1006,6 hPa 0,0 l/m 9,4 km/h (2 Bft) S 170 0 min 0 lux 0 W/m
29.07.2017 22:11 24,2 C 64 % 1006,6 hPa 0,0 l/m 9,0 km/h (2 Bft) S-SW22.5 200 0 min 0 lux 0 W/m
29.07.2017 22:15 24,2 C 64 % 1006,6 hPa 0,0 l/m 7,2 km/h (2 Bft) S-SW 205 0 min 0 lux 0 W/m
29.07.2017 22:20 24,1 C 63 % 1006,6 hPa 0,0 l/m 11,0 km/h (2 Bft) S22.5 190 0 min 0 lux 0 W/m
29.07.2017 22:25 24,3 C 62 % 1006,6 hPa 0,0 l/m 12,5 km/h (2 Bft) S22.5 175 0 min 0 lux 0 W/m
29.07.2017 22:31 24,3 C 62 % 1006,6 hPa 0,0 l/m 12,0 km/h (2 Bft) S22.5 175 0 min 0 lux 0 W/m
29.07.2017 22:36 24,3 C 61 % 1006,6 hPa 0,0 l/m 14,7 km/h (3 Bft) S22.5 185 0 min 0 lux 0 W/m
29.07.2017 22:40 24,4 C 61 % 1006,6 hPa 0,0 l/m 15,5 km/h (3 Bft) S22.5 180 0 min 0 lux 0 W/m
29.07.2017 22:45 24,4 C 61 % 1006,6 hPa 0,0 l/m 15,6 km/h (3 Bft) S22.5 190 0 min 0 lux 0 W/m
29.07.2017 22:50 24,4 C 60 % 1006,6 hPa 0,0 l/m 15,5 km/h (3 Bft) S-SW22.5 195 0 min 0 lux 0 W/m
29.07.2017 22:56 24,4 C 61 % 1006,6 hPa 0,0 l/m 12,5 km/h (2 Bft) S22.5 185 0 min 0 lux 0 W/m
29.07.2017 23:01 24,4 C 61 % 1006,6 hPa 0,0 l/m 12,5 km/h (2 Bft) S22.5 180 0 min 0 lux 0 W/m
29.07.2017 23:05 24,4 C 61 % 1006,6 hPa 0,0 l/m 11,3 km/h (2 Bft) S22.5 185 0 min 0 lux 0 W/m
29.07.2017 23:11 24,4 C 61 % 1006,6 hPa 0,0 l/m 11,5 km/h (2 Bft) S22.5 185 0 min 0 lux 0 W/m
29.07.2017 23:16 24,3 C 61 % 1006,6 hPa 0,0 l/m 12,5 km/h (2 Bft) S22.5 185 0 min 0 lux 0 W/m
29.07.2017 23:20 24,2 C 61 % 1006,6 hPa 0,0 l/m 11,1 km/h (2 Bft) S22.5 180 0 min 0 lux 0 W/m
29.07.2017 23:25 24,2 C 61 % 1006,6 hPa 0,0 l/m 12,0 km/h (2 Bft) S22.5 180 0 min 0 lux 0 W/m
29.07.2017 23:30 24,2 C 61 % 1006,6 hPa 0,0 l/m 10,7 km/h (2 Bft) S22.5 185 0 min 0 lux 0 W/m
29.07.2017 23:36 24,2 C 61 % 1006,6 hPa 0,0 l/m 15,3 km/h (3 Bft) S22.5 185 0 min 0 lux 0 W/m
29.07.2017 23:41 24,2 C 62 % 1006,6 hPa 0,0 l/m 14,5 km/h (3 Bft) S22.5 190 0 min 0 lux 0 W/m
29.07.2017 23:45 24,1 C 62 % 1006,6 hPa 0,0 l/m 15,5 km/h (3 Bft) S22.5 180 0 min 0 lux 0 W/m
29.07.2017 23:50 24,0 C 62 % 1006,6 hPa 0,0 l/m 11,6 km/h (2 Bft) S22.5 180 0 min 0 lux 0 W/m
29.07.2017 23:55 24,0 C 63 % 1006,6 hPa 0,0 l/m 13,5 km/h (3 Bft) S22.5 175 0 min 0 lux 0 W/m
_ Min-Zeit 01:16 14:25 20:35 - 00:01 - - - - -
Minimum _ 16,2 C 54 % 1006,6 hPa - 0,0 km/h (0 Bft) - - - - -
_ Max-Zeit 19:35 02:10 00:20 00:01 13:21 - - 08:06 14:56 14:56
Maximum _ 27,4 C 81 % 1011,7 hPa 0,0 l/m 42,0 km/h
W (6 Bft)
- - 6 min 108 klux 739 W/m
Durchschnitt _ 21,7 C 66 % 1009,5 hPa #0,0 l/m 20,3 km/h (4 Bft) SW - #4:58 h 21,8 klux 233 W/m